TimeCDT,TemperatureF,Dew PointF,Humidity,Sea Level PressureIn,VisibilityMPH,Wind Direction,Wind SpeedMPH,Gust SpeedMPH,PrecipitationIn,Events,Conditions,WindDirDegrees,DateUTC
12:53 AM,62.1,55.0,78,29.86,10.0,SE,5.8,-,N/A,,Clear,140,2013-04-09 05:53:00
1:53 AM,64.0,55.0,73,29.86,10.0,SSE,9.2,-,N/A,,Mostly Cloudy,150,2013-04-09 06:53:00
2:53 AM,62.1,54.0,75,29.85,10.0,SSE,6.9,-,N/A,,Clear,160,2013-04-09 07:53:00
3:53 AM,62.1,55.0,78,29.85,10.0,SSE,9.2,-,N/A,,Clear,160,2013-04-09 08:53:00
4:53 AM,59.0,54.0,83,29.87,10.0,Calm,Calm,-,N/A,,Scattered Clouds,0,2013-04-09 09:53:00
5:53 AM,64.0,57.9,80,29.88,10.0,South,8.1,-,N/A,,Mostly Cloudy,170,2013-04-09 10:53:00
7:53 AM,66.9,60.1,79,29.92,10.0,South,9.2,-,N/A,,Overcast,170,2013-04-09 12:53:00
8:53 AM,70.0,62.1,76,29.93,10.0,South,16.1,20.7,N/A,,Mostly Cloudy,170,2013-04-09 13:53:00
9:29 AM,71.6,62.6,73,29.95,10.0,South,17.3,26.5,N/A,,Mostly Cloudy,170,2013-04-09 14:29:00
9:38 AM,71.6,62.6,73,29.95,10.0,South,15.0,26.5,N/A,,Overcast,170,2013-04-09 14:38:00
9:53 AM,71.1,62.1,73,29.94,10.0,South,19.6,27.6,N/A,,Overcast,170,2013-04-09 14:53:00
10:37 AM,71.6,62.6,73,29.96,10.0,South,9.2,-,0.00,,Overcast,180,2013-04-09 15:37:00
10:45 AM,71.6,62.6,73,29.96,10.0,South,13.8,23.0,0.00,,Overcast,180,2013-04-09 15:45:00
10:53 AM,73.0,63.0,71,29.96,10.0,South,12.7,-,0.00,,Overcast,180,2013-04-09 15:53:00
11:46 AM,75.2,62.6,65,29.94,10.0,South,16.1,27.6,N/A,,Mostly Cloudy,190,2013-04-09 16:46:00
11:53 AM,75.0,63.0,66,29.93,10.0,SSW,15.0,26.5,N/A,,Mostly Cloudy,210,2013-04-09 16:53:00
12:53 PM,77.0,63.0,62,29.91,10.0,South,10.4,19.6,N/A,,Overcast,190,2013-04-09 17:53:00
1:53 PM,79.0,63.0,58,29.88,10.0,South,15.0,28.8,N/A,,Mostly Cloudy,180,2013-04-09 18:53:00
2:53 PM,81.0,63.0,54,29.87,10.0,South,18.4,25.3,N/A,,Mostly Cloudy,190,2013-04-09 19:53:00
3:53 PM,82.0,63.0,52,29.86,10.0,South,15.0,20.7,N/A,,Mostly Cloudy,180,2013-04-09 20:53:00
4:53 PM,82.9,61.0,47,29.83,10.0,South,15.0,25.3,N/A,,Mostly Cloudy,170,2013-04-09 21:53:00
5:53 PM,82.0,62.1,51,29.84,10.0,South,19.6,25.3,N/A,,Scattered Clouds,180,2013-04-09 22:53:00
6:53 PM,80.1,63.0,56,29.85,10.0,South,10.4,-,N/A,,Overcast,170,2013-04-09 23:53:00
7:53 PM,78.1,63.0,60,29.84,10.0,South,11.5,-,N/A,,Clear,170,2013-04-10 00:53:00
8:53 PM,77.0,63.0,62,29.87,10.0,South,10.4,-,N/A,,Mostly Cloudy,170,2013-04-10 01:53:00
9:53 PM,73.9,63.0,68,29.85,10.0,SSE,12.7,-,N/A,,Clear,150,2013-04-10 02:53:00
10:53 PM,73.9,64.0,71,29.84,10.0,SSE,12.7,-,N/A,,Clear,160,2013-04-10 03:53:00
11:53 PM,73.0,64.0,73,29.83,10.0,SSE,11.5,-,N/A,,Clear,160,2013-04-10 04:53:00